This is the latest recevied weather packets stored in our database for station/object YN1JLX-13. If no packets are shown the sender has not sent any weather packets the latest 10 day(s).
| Time | Temp. | Humidity | Pressure | Rain* | Wind** | Luminosity | Snow |
|---|---|---|---|---|---|---|---|
| 1777705347 | 21.11° C | 81% | 1011 hPa | 0 mm | - | - | - |
| 1777704747 | 20.56° C | 78% | 1011 hPa | 0 mm | - | - | - |
| 1777704147 | 21.11° C | 77% | 1011 hPa | 0 mm | - | - | - |
| 1777703546 | 21.67° C | 76% | 1010 hPa | 0 mm | - | - | - |
| 1777702946 | 19.44° C | 78% | 1011 hPa | 0 mm | - | - | - |
| 1777702346 | 19.44° C | 78% | 1011 hPa | 0 mm | - | - | - |
| 1777701746 | 20° C | 78% | 1011 hPa | 0 mm | - | - | - |
| 1777701145 | 20.56° C | 77% | 1011 hPa | 0 mm | - | - | - |
| 1777700545 | 21.11° C | 76% | 1011 hPa | 0 mm | - | - | - |
| 1777699945 | 22.22° C | 76% | 1011 hPa | 0 mm | - | - | - |
| 1777699344 | 20.56° C | 77% | 1011 hPa | 0 mm | - | - | - |
| 1777698744 | 20.56° C | 77% | 1011 hPa | 0 mm | - | - | - |
| 1777698144 | 19.44° C | 76% | 1011 hPa | 0 mm | - | - | - |
| 1777697543 | 19.44° C | 76% | 1011 hPa | 0 mm | - | - | - |
| 1777696943 | 20.56° C | 76% | 1011 hPa | 0 mm | - | - | - |
| 1777696343 | 20.56° C | 74% | 1011 hPa | 0 mm | - | - | - |
| 1777695743 | 21.67° C | 73% | 1011 hPa | 0 mm | - | - | - |
| 1777695142 | 21.67° C | 73% | 1011 hPa | 0 mm | - | - | - |
| 1777694542 | 20.56° C | 74% | 1011 hPa | 0 mm | - | - | - |
| 1777693941 | 21.11° C | 74% | 1011 hPa | 0 mm | - | - | - |
| 1777693341 | 21.67° C | 74% | 1011 hPa | 0 mm | - | - | - |
| 1777692741 | 21.11° C | 75% | 1011 hPa | 0 mm | - | - | - |
| 1777692141 | 21.67° C | 75% | 1010 hPa | 0 mm | - | - | - |
| 1777691541 | 21.11° C | 75% | 1010 hPa | 0 mm | - | - | - |
| 1777690940 | 21.67° C | 75% | 1010 hPa | 0 mm | - | - | - |
* Rain latest hour (hover to see other rain measurements)
** Current wind speed in m/s (hover to see current wind gust speed)